Regional Weather Roundup
Issued by NWS Kansas City/Pleasant Hill, MO

Home | Current Version | Previous Version | Text Only | Print | Product List | Glossary On
Versions: 1 2 3 4 5 6 7 8 9 10 11 12 13 14 15 16 17 18 19 20 21 22 23 24 25 26 27 28 29 30 31 32 33 34 35 36 37 38 39 40 41 42 43 44 45 46 47 48 49 50
000
ASUS43 KEAX 301910
RWREAX

WEATHER ROUNDUP FOR EASTERN KANSAS AND NORTHWEST MISSOURI
NATIONAL WEATHER SERVICE KANSAS CITY/PLEASANT HILL MO
200 PM CDT THU JUL 30 2015

KSZ040-057-103>105-MOZ028-029-037-043-302000-
...KANSAS CITY METROPOLITAN AREA...

CITY           SKY/WX    TMP DP  RH WIND       PRES   REMARKS
K.C. INTL      PTSUNNY   83  66  56 SW8       30.21F
K.C. DOWNTOWN  CLOUDY    88  58  36 SW7       30.19F
LEES SUMMIT    CLOUDY    84  60  44 SW6       30.21F
OLATHE - IXD   CLOUDY    83  57  41 S5        30.22F
OLATHE - OJC   CLOUDY    81  56  42 S6        30.21F
LAWRENCE       PTSUNNY   85  62  46 S6        30.21F

$$

MOZ001>008-011>017-020>025-030>033-038>040-044>046-053-054-302000-
...NORTHERN AND CENTRAL MISSOURI...

CITY           SKY/WX    TMP DP  RH WIND       PRES   REMARKS
ST. JOSEPH     SUNNY     84  64  50 SW7       30.20F
MOSBY          MOCLDY    86  57  37 S5        30.20F
WARRENSBURG    CLOUDY    84  59  42 CALM      30.20S
WHITEMAN AFB   PTSUNNY   88  53  30 E5        30.19F
CLINTON        CLOUDY    84  61  45 CALM      30.21S
SEDALIA        PTSUNNY   88  56  33 SE6       30.21F
WARSAW         NOT AVBL
CHILLICOTHE      N/A     86  64  47 VRB6      30.20F
KIRKSVILLE     SUNNY     87  61  41 W10       30.19F

$$

MOZ041-047>049-056>058-063>065-088>090-097-302000-
...EASTERN AND SOUTHERN MISSOURI...

CITY           SKY/WX    TMP DP  RH WIND       PRES   REMARKS
ST. LOUIS INTL PTSUNNY   90  56  31 N8        30.17F
SPIRIT OF STL  MOSUNNY   87  61  41 W7        30.15F
COLUMBIA       MOSUNNY   86  58  38 CALM      30.20F
JEFFERSON CITY MOSUNNY   87  54  32 SE6       30.18S
ROLLA          MOSUNNY   86  57  37 VRB7      30.19F
OSAGE BEACH    PTSUNNY   88  57  35 CALM      30.20S
SPRINGFIELD      N/A     87  52  29 NE9       30.20F
BRANSON        MOSUNNY   84  59  42 E7        30.22F
JOPLIN         PTSUNNY   87  63  44 VRB6      30.19F
WEST PLAINS    SUNNY     86  59  39 VRB7      30.22F

$$

IAZ060-094-KSZ022-034>040-054-083-096-NEZ052-066-093-302000-
...KANSAS...SOUTHEAST NEBRASKA AND IOWA...

CITY           SKY/WX    TMP DP  RH WIND       PRES   REMARKS
TOPEKA         MOSUNNY   84  61  45 S7        30.21F
MANHATTAN      SUNNY     85  63  47 VRB5      30.20F
EMPORIA        CLOUDY    74  67  78 S3        30.23F
CHANUTE        CLOUDY    85  59  41 CALM      30.21F
WICHITA        PTSUNNY   79  69  71 N7        30.21F
OMAHA          MOSUNNY   88  57  34 SW9       30.18F
LINCOLN        SUNNY     90  55  30 SW10      30.20F
FALLS CITY     MOSUNNY   86  62  44 SW9       30.19F
LAMONI           N/A     85  61  44 W10       30.20F
DES MOINES     MOSUNNY   88  58  36 W18       30.15F

$$



USA.gov is the U.S. government's official web portal to all federal, state and local government web resources and services.